www.pogodaiklimat.ru

Погода и климат >> Архив погоды >> Россия >> Якутия >> Колымская


ПОГОДА в Колымской

  • Прогноз погоды в Колымской
  • Монитор погоды в Колымской

АРХИВ ПОГОДЫ в Колымской

Время (UTC), дата Ветер
(напр.,м/с)
 
Видим.   Явления Облачность Т
(С)
Тd
(С)
f
(%)
Тe
(С)
Тes
(С)
Комфортность P
(гПа)
Po
(гПа)
Тmin
(С)
Tmax
(С)
R
(мм)
R24
(мм)
S
(см)
09 14.04 ЮВ 1 20 км 8/0
[Ci fib]
-5.4 -10.0 70 -8 -8 1012.3 1010.8 -1.0
12 14.04 Ю 2 20 км 1/0
[Ci fib]
-5.7 -10.0 72 -10 -10 1013.3 1011.8
15 14.04 Ю 2 20 км ясно -6.5 -11.1 70 -11 -11 1013.4 1011.9
18 14.04 ЮВ 4 20 км ясно -14.9 -15.5 95 -23 -23 1013.5 1011.9
21 14.04 В 4 20 км 6/0
[Ci fib]
-10.5 -13.3 80 -17 -16 1013.3 1011.8 -15.0 61
00 15.04 В 4 20 км 3/0
[Ci fib]
-5.1 -10.1 68 -11 -8 1013.0 1011.5
03 15.04 В 6 20 км 3/0
[Ci fib]
-1.5 -7.1 66 -8 -6 1011.9 1010.4
06 15.04 В 6 20 км 3/0
[Ci fib]
0.0 -6.1 63 -6 -5 1011.3 1009.8
09 15.04 В 5 20 км ясно -3.2 -8.7 66 -10 -10 1011.1 1009.6 +0.1
12 15.04 В 4 20 км ясно -8.4 -12.6 72 -15 -15 1011.1 1009.6
15 15.04 В 5 20 км ясно -10.2 -13.0 80 -18 -18 1010.5 1009.0
18 15.04 ЮВ 4 20 км ясно -11.9 -14.6 80 -19 -19 1010.2 1008.7
21 15.04 ЮВ 2 20 км 8/0
[Cs]
-8.6 -12.4 74 -13 -11 1010.1 1008.6 -12.2 61
00 16.04 Ю 4 20 км 10/0
[Cs]
-1.6 -6.8 68 -7 -4 1010.4 1008.9
03 16.04 Ю 3 20 км 10/0
[Cs]
-0.6 -5.4 70 -5 -1 1010.6 1009.1
06 16.04 Ю 2 20 км 10/0
[Cs]
+0.1 -6.2 63 -3 -1 1010.6 1009.1
09 16.04 Ю 1 20 км 10/0
[Cs]
-1.0 -7.5 61 -3 -3 1009.5 1008.0 +1.2
12 16.04 Ю 2 20 км 8/0
[Cs]
-4.8 -10.1 66 -9 -9 1012.5 1011.0
15 16.04 В 1 20 км 6/0
[Cs]
-7.1 -11.4 71 -9 -9 1013.5 1012.0
18 16.04 В 7 20 км 8/0
[As op Cs]
-11.4 -12.0 95 -21 -21 1015.3 1013.8
21 16.04 С 2 20 км 8/0
[Ac trans]
-12.9 -14.2 90 -18 -16 1018.0 1016.4 -14.6 61
00 17.04 СВ 3 20 км 1/0
[Ac trans]
-10.3 -13.1 80 -16 -12 1019.6 1018.1
03 17.04 СВ 3 20 км 1/0
[Ci fib]
-6.9 -10.2 77 -12 -8 1020.7 1019.2
06 17.04 В 5 20 км ясно -6.5 -9.7 78 -14 -13 1021.0 1019.5
09 17.04 В 6 20 км 1/0
[Cs]
-10.3 -12.3 85 -19 -19 1021.6 1020.1 -6.4
12 17.04 В 5 20 км 3/0
[Ci fib]
-12.8 -14.8 85 -21 -21 1021.5 1019.9
15 17.04 В 5 20 км 3/0
[As trans]
-13.1 -14.4 90 -21 -21 1020.7 1019.1
18 17.04 В 5 20 км в посл. час зёрна 6/0
[]
-13.1 -14.4 90 -21 -21 1019.5 1017.9
21 17.04 В 7 20 км 3/0
[Ci fib]
-8.8 -12.2 76 -18 -17 1017.5 1016.0 -14.9 61
00 18.04 В 7-10
{10}
20 км 3/0
[Ci fib]
-2.8 -9.0 62 -10 -9 1014.9 1013.4
03 18.04 В 5
{10}
20 км 6/0
[Ci]
+0.4 -7.0 58 -5 -2 1012.7 1011.2
06 18.04 ЮВ 7 20 км 6/0
[As trans]
+0.4 -6.6 59 -6 -6 1009.8 1008.3
09 18.04 ЮВ 5 20 км 10/0
[As op]
-0.3 -9.0 52 -6 -6 1008.6 1007.1 +1.5
12 18.04 ЮВ 5
{14}
20 км 10/10 600 м
[Sc]
+0.1 -6.6 61 -5 -5 1007.6 1006.1
15 18.04 Ю 5 20 км 8/8 600 м
[Sc Ac trans]
-0.7 -6.3 66 -7 -7 1006.8 1005.3
18 18.04 Ю 5 20 км 8/8 300 м
[Sc Ac trans]
-2.0 -5.2 79 -8 -8 1007.0 1005.5
21 18.04 ЮЗ 10-14
{16}
20 км 10/10 300 м
[Sc]
-6.9 -8.6 88 -17 -17 1010.0 1008.5 -7.0
00 19.04 З 8-10
{16}
10 км слаб. снег {метель} 10/4 300 м
[Sc As op]
-8.8 -11.2 83 -18 -18 1014.5 1013.0 -8.9
03 19.04 З 9-13
{15}
10 км слаб. снег {метель} 10/0
[As op]
-9.2 -12.2 79 -19 -19 1017.7 1016.2
06 19.04 З 8-10
{15}
20 км {снег, метель} 8/0
[As op]
-8.6 -12.4 74 -18 -18 1020.2 1018.7
09 19.04 З 7
{14}
20 км {метель} ясно -11.2 -16.5 65 -20 -20 1022.9 1021.4 -6.8 0.0
12 19.04 З 4 20 км {метель} ясно -13.7 -18.0 70 -21 -21 1024.7 1023.1
15 19.04 ЮЗ 3 20 км ясно -15.1 -18.5 75 -22 -22 1025.2 1023.6
18 19.04 ЮЗ 4 20 км ясно -18.1 -20.7 80 -27 -26 1025.2 1023.6
21 19.04 Ю 2 20 км ясно -16.0 -19.4 75 -21 -18 1025.0 1023.4 -19.0 61
00 20.04 С 1 20 км 10/0
[Ci fib]
-11.1 -17.3 60 -13 -7 1024.8 1023.2
03 20.04 С 2 20 км 10/0
[Cs]
-12.0 -16.4 70 -17 -12 1024.3 1022.7
06 20.04 С 2 20 км 10/0
[Cs]
-11.4 -15.8 70 -16 -14 1024.1 1022.5
09 20.04 СЗ 2 20 км 4/0
[Ci fib]
-13.8 -16.5 80 -19 -19 1024.9 1023.3 -10.9
12 20.04 З 2 20 км ясно -17.5 -18.7 90 -23 -23 1025.7 1024.1
15 20.04 ЮЗ 3 20 км ясно -18.6 -19.8 90 -26 -26 1026.1 1024.6
18 20.04 ЮЗ 3 20 км ясно -21.4 -23.2 85 -29 -29 1026.5 1024.9
21 20.04 ЮЗ 2 20 км ясно -19.5 -21.4 85 -25 -22 1027.1 1025.5 -22.1 61
00 21.04 штиль 0 20 км ясно -9.8 -17.0 56 -10 -1 1026.9 1025.4
03 21.04 СВ 1 20 км ясно -5.7 -14.7 49 -7 0 1027.0 1025.5
06 21.04 СВ 3 20 км 1/0
[Ci fib]
-8.3 -13.0 69 -14 -12 1026.5 1025.0

 

Местоположение метеостанции Колымская (Якутия, Россия): широта 68.72 долгота 158.60 высота над уровнем моря 12 м.

В архиве по умолчанию представлена погода в Колымской за последнюю неделю. Архивные данные за месяц целиком и за предыдущие месяцы, начиная с января 2011 года, Вы можете получить, выбрав интересующий диапазон дат из раскрывающегося списка и нажав кнопку "Ввод!".


*Определитесь, кто Вы:
робот инопланетянин человек

Внимание! Время в таблицах - всемирное. Для получения местного времени необходимо прибавить поправку, которая равна 11 ч.

Смотрите также архив погоды в соседних городах и на ближайших метеорологических станциях:

Погода в Черском (Якутия, Россия) (109 км)
Погода в Константиновской (Чукотка, Россия) (120 км)
Погода в Анюйске (Чукотка, Россия) (125 км)
Погода в Андрюшкино (Якутия, Россия) (171 км)
Погода в Бухте Амбарчик (Чукотка, Россия) (177 км)
Погода в Островном (Чукотка, Россия) (235 км)
Погода в Среднеколымске (Якутия, Россия) (248 км)
Погода в Раучуе (Чукотка, Россия) (325 км)
Погода в Билибино (Чукотка, Россия) (328 км)
Погода в Баимке (Чукотка, Россия) (340 км)

Пояснения к столбцам:

Ветер - указаны скорость ветра в м/с - средняя за 10 мин, порывы в срок и между сроками (в фигурных скобках) и направление, откуда дует ветер: С - северный, СВ - северо-восточный, В - восточный, ЮВ - юго-восточный, Ю - южный, ЮЗ - юго-западный, З - западный, СЗ - северо-западный.
Видимость - горизонтальная дальность видимости в метрах или километрах. При видимости от 1 до 10 км при отсутствии осадков обычно наблюдается дымка, при ухудшении видимости до 1 км и менее - туман. В сухую погоду видимость может ухудшаться дымом, пылью или мглою.
Явления - указаны атмосферные явления, наблюдавшиеся в срок или в последний час перед сроком; фигурными скобками обозначены явления, наблюдавшиеся между сроками (за 1-3 часа до срока); квадратными скобками обозначены град или гололедные отложения с указанием их диаметра в мм.
Облачность - указаны через наклонную черту общая и нижняя облачность в баллах и высота нижней границы облаков в метрах; квадратными скобками обозначены формы облаков: Ci - перистые, Cs - перисто-слоистые, Cc - перисто-кучевые, Ac - высококучевые, As - высокослоистые, Sc - слоисто-кучевые, Ns - слоисто-дождевые, Cu - кучевые, Cb - кучево-дождевые. Подробнее классификацию облаков см. в Атласе облаков (PDF).
T - Температура воздуха - температура, измеренная на высоте 2 м над землей.
Td - Температура точки росы - температура, при понижении до которой содержащийся в воздухе водяной пар достигнет насыщения.
f - Относительная влажность воздуха - влажноcть воздуха, измеренная на высоте 2 м над землей.
Te - Эффективная температура - температура, которую ощущает одетый по сезону человек в тени. Характеристика душности погоды. При расчете учитывается влияние влажности воздуха и скорости ветра на теплоощущения человека.
Tes - Эффективная температура на солнце - температура, которую ощущает человек, с поправкой на солнечный нагрев. Характеристика знойности погоды. Зависит от высоты солнца над горизонтом, облачности и скорости ветра. Ночью, в пасмурную погоду, а также при ветре 12 м/с и более поправка равна нулю.
P - Атмосферное давление - приведенное к уровню моря атмосферное давление.
Po - Атмосферное давление - измеренное на уровне метеостанции атмосферное давление.
Tmin - Минимальная температура - минимум температуры воздуха на высоте 2 м над землей.
Tmax - Максимальная температура - максимум температуры воздуха на высоте 2 м над землей.
R - Количество осадков - Количество выпавших осадков за период времени, мм. При наведении курсора мыши на число - период времени, за который выпало указанное количество осадков.
R24 - Количество осадков - Количество выпавших осадков за 24 часа, мм.
S - Снежный покров - Высота снежного покрова, см. При наведении курсора мыши на число - состояние снежного покрова и степень покрытия местности в баллах.